Flag for Germany Weather past 2 weeks in Peine, Lower Saxony, Germany

Now
54 °F

Cool.


Feels Like: 54 °F
Forecast: 47 / 58 °F
Wind: 1 mph from South

Location: Celle Airport

Current Time: May 25, 2015 at 12:12:04 AM

Latest Report: May 24, 2015 at 11:20 PM


Visibility: N/A

Pressure: 30.01 "Hg

Humidity: 77%

Dew point: 46 °F

Location of PeineLocation

Historic Weather in Peine — Graph

°F

Peine temperature yesterday

Maximum temperature yesterday: 66 °F (at 4:20 PM)
Minimum temperature yesterday: 37 °F (at 5:20 AM)
Average temperature yesterday: 54 °F

Past Weeks' High & Low Weather Summary

 TemperatureHumidityPressure
High79 °F (May 12, 1:20 PM)100% (May 24, 5:20 AM)30.36 "Hg (May 24, 5:20 AM)
Low36 °F (May 15, 5:20 AM)32% (May 20, 4:20 PM)29.59 "Hg (May 18, 9:20 PM)
Average54 °F65%30.06 "Hg
* Reported May 9 10:20 PM — May 24 10:20 PM, Peine, Weather by CustomWeather, © 2015

Note: Actual official high and low records may vary slightly from our data, if they occured in-between our weather recording intervals... More about our weather records

Advertising

Peine weather history for previous 24 hours

 ConditionsComfort  
Time TempWeatherWind HumidityBarometerVisibility
10:20 PM
Sun, May 24
57 °FCool.2 mph72%30.01 "HgN/A
9:20 PM61 °FRefreshingly cool.1 mph59%30.01 "HgN/A
8:20 PM64 °FMild.6 mph49%30.01 "HgN/A
7:20 PM66 °FMild.6 mph46%30.01 "HgN/A
6:20 PM66 °FMild.6 mph43%30.04 "HgN/A
5:20 PM66 °FMild.5 mph43%30.04 "HgN/A
4:20 PM66 °FMild.8 mph43%30.07 "HgN/A
3:20 PM64 °FMild.6 mph46%30.07 "HgN/A
2:20 PM64 °FMild.6 mph46%30.09 "HgN/A
1:20 PM63 °FMild.5 mph52%30.09 "HgN/A
12:20 PM61 °FRefreshingly cool.5 mph55%30.12 "Hg5 mi
11:20 AM59 °FRefreshingly cool.5 mph59%30.12 "Hg5 mi
10:20 AM55 °FCool.2 mph63%30.15 "Hg4 mi
9:20 AM52 °FCool.1 mph72%30.15 "Hg5 mi
8:20 AM48 °FCool.1 mph76%30.15 "Hg5 mi
7:20 AM43 °FQuite cool.3 mph87%30.15 "Hg5 mi
6:20 AM39 °FChilly.3 mph93%30.15 "Hg4 mi
5:20 AM37 °FChilly.2 mph100%30.15 "Hg1 mi
4:20 AM39 °FChilly.2 mph93%30.15 "Hg5 mi
3:20 AM41 °FQuite cool.3 mph93%30.15 "Hg6 mi
2:20 AM43 °FQuite cool.3 mph87%30.15 "Hg5 mi
1:20 AM45 °FQuite cool.2 mph87%30.15 "HgN/A
12:20 AM48 °FCool.2 mph76%30.18 "HgN/A
Weather by CustomWeather, © 2015

See weather overviewHow to use our weather pages